Home   Weather   Wolverhampton   Past weeks

Flag for United Kingdom Past Weather in Wolverhampton, England, United Kingdom — Yesterday and Last 2 Weeks

Now
39 °F

Fog.


Feels Like: 34 °F
Forecast: 40 / 42 °F
Wind: 7 mph from South

Location: Birmingham / Airport

Current Time: Jan 17, 2017 at 7:15:28 am

Latest Report: Jan 17, 2017 at 6:20 am


Visibility: 1 mi

Pressure: 30.51 "Hg

Humidity: 100%

Dew Point: 39 °F

Location of WolverhamptonLocation

Past Weather in Wolverhampton — Graph

°F

Wolverhampton Temperature Yesterday

Maximum temperature yesterday: 46 °F (at 12:20 am)
Minimum temperature yesterday: 39 °F (at 11:20 pm)
Average temperature yesterday: 44 °F

High & Low Weather Summary for the Past Weeks

 TemperatureHumidityPressure
High52 °F (Jan 11, 5:20 am)100% (Jan 2, 5:20 am)30.60 "Hg (Jan 2, 5:20 am)
Low27 °F (Jan 5, 3:20 am)53% (Jan 11, 2:20 pm)29.42 "Hg (Jan 12, 5:50 pm)
Average41 °F91%30.18 "Hg
* Reported Jan 2 5:20 am — Jan 17 5:50 am, Wolverhampton, Weather by CustomWeather, © 2017

Note: Actual official high and low records may vary slightly from our data, if they occured in-between our weather recording intervals... More about our weather records

Advertising

Wolverhampton Weather History for the Previous 24 Hours

Scroll right to see more
 ConditionsComfort  
Time TempWeatherWind HumidityBarometerVisibility
5:50 am
Tue, Jan 17
39 °FFog.5 mph100%30.51 "Hg1 mi
5:20 am39 °FFog.7 mph100%30.48 "Hg1 mi
4:50 am39 °FFog.7 mph100%30.48 "Hg1 mi
4:20 am39 °FFog.5 mph100%30.48 "Hg2 mi
3:50 am39 °FFog.3 mph100%30.48 "Hg3 mi
3:20 am39 °FFog.5 mph100%30.48 "Hg3 mi
2:50 am39 °FFog.5 mph100%30.48 "Hg3 mi
2:20 am39 °FFog.3 mph100%30.48 "Hg3 mi
1:50 am39 °FFog.7 mph100%30.48 "Hg3 mi
1:20 am39 °FFog.7 mph100%30.45 "Hg2 mi
12:50 am39 °FFog.7 mph100%30.45 "Hg2 mi
12:20 am39 °FFog.10 mph100%30.45 "Hg2 mi
11:50 pm
Mon, Jan 16
39 °FDrizzle. Low clouds.7 mph100%30.45 "Hg1 mi
11:20 pm39 °FFog.9 mph100%30.45 "Hg1 mi
10:50 pm41 °FFog.9 mph100%30.45 "Hg1 mi
10:20 pm41 °FLight rain. Low clouds.9 mph100%30.45 "Hg2 mi
9:50 pm41 °FLow clouds.10 mph100%30.42 "Hg4 mi
9:20 pm41 °FFog.7 mph100%30.42 "Hg2 mi
8:50 pm43 °FDrizzle. Fog.8 mph100%30.42 "Hg1 mi
8:20 pm43 °FDrizzle. Fog.5 mph100%30.42 "Hg1 mi
7:50 pm43 °FDrizzle. Fog.5 mph100%30.39 "Hg1 mi
7:20 pm43 °FDrizzle. Mostly cloudy.5 mph100%30.39 "Hg1 mi
6:50 pm45 °FFog.5 mph100%30.36 "Hg1 mi
6:20 pm45 °FFog.3 mph100%30.36 "Hg1 mi
5:50 pm45 °FLight rain. Fog.5 mph100%30.36 "Hg1 mi
5:20 pm45 °FFog.5 mph100%30.36 "Hg1 mi
4:50 pm45 °FDrizzle. Fog.3 mph100%30.33 "Hg1 mi
4:20 pm45 °FDrizzle. Fog.2 mph100%30.33 "Hg1 mi
3:50 pm45 °FDrizzle. Fog.3 mph100%30.33 "Hg1 mi
3:20 pm45 °FFog.2 mph100%30.33 "Hg1 mi
2:50 pm45 °FFog.2 mph100%30.33 "Hg1 mi
2:20 pm45 °FDrizzle. Fog.2 mph100%30.33 "Hg1 mi
1:50 pm43 °FDrizzle. Fog.3 mph100%30.33 "Hg1 mi
1:20 pm43 °FDrizzle. Low clouds.5 mph100%30.33 "Hg1 mi
12:50 pm43 °FDrizzle. Low clouds.6 mph100%30.33 "Hg1 mi
12:20 pm43 °FDrizzle. Low clouds.6 mph100%30.33 "Hg1 mi
11:50 am43 °FDrizzle. Low clouds.6 mph100%30.33 "Hg1 mi
11:20 am43 °FDrizzle. Low clouds.5 mph100%30.33 "Hg1 mi
10:50 am45 °FDrizzle. Low clouds.6 mph100%30.30 "Hg1 mi
10:20 am43 °FDrizzle. Low clouds.3 mph100%30.30 "Hg1 mi
9:50 am45 °FDrizzle. Low clouds.5 mph100%30.30 "Hg1 mi
9:20 am45 °FDrizzle. Low clouds.5 mph100%30.30 "Hg1 mi
8:50 am46 °FDrizzle. Mostly cloudy.6 mph100%30.30 "Hg1 mi
8:20 am46 °FDrizzle. Partly sunny.6 mph100%30.30 "Hg2 mi
7:50 am46 °FDrizzle. Low clouds.6 mph100%30.30 "Hg1 mi
7:20 am46 °FPassing clouds.6 mph100%30.27 "Hg1 mi
Weather by CustomWeather, © 2017

See weather overviewHow to use our weather pages